Location: Heidgraben
(53.7081°N, 9.6576°E)
Time: 04:40:03
(UTC+00:00)

Cosmos 1624 Rocket - Pass Details

Date: 05 July 2020
Orbit: 758 x 783 km, 74.0° (Epoch: 05 August)

Event Time Altitude Azimuth Distance (km) Brightness Sun altitude
Rises 22:05:11 0° 333° (NNW) 3,253 9.3 -11.6°
Reaches altitude 10° 22:07:35 10° 333° (NNW) 2,319 8.0 -11.8°
Maximum altitude 22:12:51 86° 245° (WSW) 773 4.0 -12.0°
Enters shadow 22:16:55 17° 158° (SSE) 1,854 5.3 -12.2°
